RH
57 52 42 35 31 26 16 8 6 4 4 4 4 4 4 4 5 5 5 4 4 4 3 3 3 3 3 3 3 3 3 4 4 4 3 4 4 4 5 6 6 6 6
67 57 58 51 42 36 27 15 9 6 5 4 4 4 4 4 5 5 5 5 5 4 4 3 3 3 3 3 3 3 3 4 4 4 4 4 4 4 5 6 6 6 7
72 77 72 61 56 48 40 29 14 9 7 5 4 4 4 4 5 6 6 6 5 5 4 4 3 3 3 3 4 3 3 4 4 4 4 4 4 5 5 6 6 6 7
70 75 81 80 68 59 54 44 36 22 10 8 5 5 4 5 5 5 6 6 6 6 5 5 4 3 3 4 4 4 3 4 4 4 4 4 5 5 6 6 6 6 7
41 66 68 64 73 71 68 61 53 47 39 20 9 6 5 4 5 5 6 6 6 6 6 6 5 4 4 4 4 4 4 4 4 5 5 5 5 5 6 6 6 7 7
28 28 55 64 68 86 100 89 73 64 57 52 39 16 8 5 4 5 6 6 7 7 6 6 6 5 4 4 5 5 5 5 5 5 5 5 6 6 6 6 7 7 7
15 21 57 77 79 74 78 99 99 98 74 67 58 56 42 12 6 5 6 6 6 7 7 7 6 6 5 5 5 5 5 6 6 6 6 6 6 6 6 7 7 7 8
14 14 18 23 28 28 42 65 100 97 99 97 81 90 66 52 29 10 5 6 6 7 8 8 7 7 6 6 6 6 6 6 6 6 6 6 7 7 7 7 7 8 8
14 15 17 21 30 39 40 36 55 87 98 90 94 98 90 79 84 62 18 7 6 7 8 9 8 7 7 7 7 7 7 7 7 7 7 7 7 7 8 8 8 8 9
13 13 14 18 20 35 46 38 53 69 80 84 100 95 82 87 83 83 58 34 9 7 8 9 10 8 8 8 8 8 8 8 8 8 8 8 8 9 9 9 10 10 10
13 12 13 16 19 21 38 45 36 44 65 78 75 85 83 96 92 94 93 88 60 11 8 10 10 10 8 9 9 8 9 9 9 9 9 9 10 10 10 11 11 12 12
14 13 12 12 16 19 21 29 33 29 23 30 44 59 96 99 99 100 91 98 94 71 58 14 11 11 10 9 9 9 9 9 10 10 10 10 11 11 11 12 13 13 14
16 15 16 17 17 19 21 23 24 24 23 21 29 25 47 99 100 99 93 91 92 84 65 25 11 13 12 11 10 10 10 10 10 10 11 11 11 12 12 14 15 16 18
20 17 24 27 27 26 26 27 27 26 23 22 21 23 24 34 48 69 71 76 88 87 78 72 48 14 15 13 12 10 10 10 10 11 11 11 12 13 14 16 18 21 22
21 19 26 27 28 29 29 28 26 26 26 25 25 27 30 31 33 29 29 36 50 76 70 53 43 31 17 18 14 11 11 11 11 12 12 12 13 14 16 20 24 24 26
22 24 28 29 28 27 28 28 28 29 34 34 34 36 48 59 83 88 78 66 50 48 67 75 70 44 24 20 19 14 12 12 12 13 13 14 15 18 23 25 28 34 43
26 31 34 34 29 29 32 36 38 47 63 73 78 75 72 87 86 90 94 94 87 80 63 60 74 60 38 25 20 18 14 13 14 15 16 17 20 25 29 42 49 55 67
34 40 40 36 37 39 38 43 56 61 67 71 74 79 85 87 84 92 100 100 98 96 88 84 96 62 52 33 24 21 17 16 17 17 18 23 27 38 53 62 66 69 77
47 44 39 37 40 45 53 62 85 94 91 90 86 84 90 95 96 100 100 100 100 100 100 95 91 98 65 54 36 27 24 22 22 21 25 31 46 60 70 74 78 82 85
53 47 41 39 38 60 76 88 75 83 93 84 83 99 100 100 100 96 100 100 99 98 98 99 98 98 90 63 47 33 28 31 30 32 35 49 64 75 83 87 89 91 93
50 45 39 35 50 70 73 49 78 80 88 99 100 100 99 100 100 100 99 100 100 99 100 95 98 99 99 70 51 46 42 36 37 40 42 52 62 74 84 89 90 92 88
43 40 40 61 62 47 46 50 71 92 86 79 99 97 93 98 100 96 94 99 97 99 99 100 97 98 98 92 76 38 30 36 36 39 41 45 51 58 63 66 68 68 67
61 50 56 59 59 59 63 70 86 85 77 97 97 98 98 99 97 100 93 98 98 91 95 94 96 99 98 97 80 48 29 34 40 40 39 42 45 49 51 53 53 54 52
96 86 79 83 81 74 71 80 99 99 97 99 100 100 99 98 96 99 97 100 88 83 68 86 97 94 70 93 79 50 37 35 36 39 39 38 42 45 46 47 46 45 45
100 100 100 91 96 91 76 100 100 98 99 96 100 96 96 91 100 95 90 71 61 50 60 94 91 73 92 80 66 42 35 37 40 41 40 39 42 44 43 50 57 67 70
100 99 98 100 99 95 85 91 98 98 99 93 91 96 94 81 97 92 67 55 46 44 51 64 65 64 79 65 48 47 46 39 39 40 43 48 63 66 59 81 94 100 100
Wind_Speed
15 12 10 10 9 8 9 10 11 11 11 11 13 13 11 8 7 5 5 4 4 2 3 2 3 3 2 3 4 4 1 3 6 6 7 9 9 10 12 12 13 14 15
14 15 13 12 10 10 10 10 11 12 12 12 12 14 12 9 8 8 6 5 6 3 4 3 4 3 3 3 5 5 4 1 3 5 4 7 7 9 9 9 11 12 13
15 15 16 17 15 13 13 12 11 12 13 13 12 14 13 11 10 9 8 7 7 5 5 4 5 5 4 3 3 5 6 4 1 3 3 4 6 7 7 7 9 9 10
18 17 17 17 18 17 16 15 13 12 13 14 14 13 14 13 13 12 11 10 9 7 7 6 6 6 5 5 4 3 4 6 4 1 1 1 4 5 6 5 6 7 8
23 22 22 20 19 19 19 18 17 16 15 14 15 15 15 15 15 15 15 13 11 11 9 8 7 7 7 6 5 4 4 5 5 6 3 1 1 3 4 4 4 5 7
24 25 23 23 21 20 17 18 18 18 18 17 17 16 17 17 16 16 17 15 14 14 12 11 9 8 8 7 7 6 5 5 4 6 7 5 3 1 1 2 2 3 5
26 24 23 28 26 25 24 25 22 17 23 20 21 19 19 18 18 18 18 17 17 16 15 13 11 10 9 9 8 7 6 7 6 5 7 8 6 4 3 1 0 2 2
28 29 29 30 31 30 30 26 24 25 26 19 20 27 25 20 18 19 20 19 19 18 17 16 14 13 12 11 10 9 9 8 8 8 6 8 8 7 6 5 3 2 2
29 28 29 29 31 31 29 29 29 30 30 26 29 23 24 22 23 23 21 20 20 21 20 19 17 16 15 13 13 12 11 10 9 10 8 7 8 8 7 6 6 5 4
30 29 29 31 32 33 31 29 31 33 38 31 27 25 32 27 32 27 24 21 22 22 23 23 22 20 18 17 16 15 14 13 11 11 10 9 7 8 7 7 6 6 5
31 31 31 32 33 34 34 32 32 34 35 38 37 35 36 32 26 29 31 31 25 24 25 26 26 24 22 20 19 18 17 15 14 12 12 11 10 8 9 8 7 7 6
33 33 33 35 35 36 36 36 34 35 35 36 35 35 36 32 29 29 30 30 27 28 29 28 28 29 28 25 23 21 20 18 17 15 14 13 12 11 9 10 10 9 8
33 32 34 36 36 36 36 37 36 36 37 35 34 34 34 36 34 37 37 31 31 28 31 31 28 30 31 29 27 24 23 21 19 18 16 14 14 13 12 11 12 11 9
33 33 33 33 33 34 35 37 36 35 36 35 35 33 32 33 34 36 37 37 33 32 35 34 32 29 31 32 30 28 26 24 22 20 18 16 16 15 15 12 12 13 12
34 33 33 32 33 34 36 37 35 34 34 33 33 34 32 30 31 32 34 36 37 35 34 32 30 32 30 33 33 31 29 27 25 22 20 18 17 17 16 15 13 13 13
35 34 32 33 33 34 34 35 36 33 32 32 33 33 32 29 26 26 28 29 30 32 36 35 32 30 29 32 34 34 31 29 26 23 21 19 18 18 17 15 13 12 12
35 34 32 32 32 32 33 35 34 33 33 34 35 36 35 33 32 31 33 34 34 32 34 38 34 30 29 32 33 34 32 30 27 24 22 21 19 18 17 15 14 14 13
35 33 32 32 33 33 33 34 34 35 37 39 40 42 42 40 38 38 41 37 39 37 36 38 33 32 29 27 30 31 33 30 27 26 24 21 20 19 18 17 16 16 15
34 34 33 33 33 33 35 34 35 36 39 42 44 43 40 46 47 44 42 42 38 38 39 39 35 35 36 31 27 27 29 27 23 25 24 22 21 20 19 18 17 17 17
35 35 35 35 34 34 36 37 38 41 44 46 38 41 42 41 40 39 44 44 35 34 37 39 36 42 40 37 33 27 26 23 25 25 24 23 23 21 20 20 19 20 21
37 38 38 37 36 36 36 36 37 40 34 31 37 38 37 39 38 36 38 31 39 41 40 40 39 34 33 37 37 32 27 29 27 25 24 25 25 24 24 24 24 25 26
31 32 33 33 34 35 35 35 37 29 29 30 29 28 24 29 33 29 34 33 35 35 32 40 43 42 39 36 37 37 35 31 28 26 27 26 28 27 26 26 28 29 31
27 29 30 29 29 29 31 30 24 24 24 24 30 35 31 28 27 35 33 32 32 32 33 35 40 44 36 33 35 35 41 33 27 27 29 29 28 26 29 30 31 33 35
24 26 25 26 24 22 25 26 26 24 22 21 23 24 26 30 35 37 31 31 31 31 28 33 32 28 25 31 33 37 34 31 28 27 28 28 28 29 32 32 34 36 37
26 26 26 26 28 25 22 25 27 27 28 24 25 21 27 24 29 26 28 26 29 27 27 23 25 30 29 33 38 33 28 28 27 26 28 30 29 31 33 34 36 37 36
25 26 30 27 27 23 22 22 24 26 29 28 29 24 27 24 27 28 30 29 29 27 29 28 29 29 28 29 28 23 24 26 26 26 27 30 31 34 34 31 29 30 30
Wind_Direction
217 221 227 232 230 235 240 239 236 235 230 231 236 240 236 225 232 230 243 256 274 286 286 282 288 287 313 310 297 285 268 100 89 77 68 71 69 67 72 71 67 66 65
212 222 226 238 234 239 243 249 251 247 243 240 242 246 241 231 233 238 242 253 263 270 277 277 275 275 282 303 309 296 276 159 101 85 66 71 72 72 72 69 69 67 66
224 224 222 229 232 235 239 243 253 256 255 251 249 254 246 241 239 245 245 248 261 269 271 272 270 271 269 264 282 303 298 288 161 117 87 66 71 72 71 60 67 62 62
237 235 227 229 234 234 244 243 244 251 256 260 257 256 259 252 247 242 244 247 255 258 263 272 271 271 269 272 266 269 281 294 290 245 137 72 78 76 78 57 50 56 54
241 241 247 244 239 233 239 240 249 253 258 263 266 264 261 257 251 250 246 245 247 251 254 259 263 265 264 264 265 252 262 273 289 292 285 304 29 86 82 78 50 45 40
247 245 246 251 248 248 247 248 245 251 256 261 269 274 269 264 261 258 257 252 251 254 252 253 253 254 257 258 257 259 256 251 268 288 295 294 298 312 134 100 72 62 47
250 249 240 246 247 249 243 244 243 257 255 257 262 268 272 272 269 264 260 256 253 254 255 254 254 253 250 250 253 252 254 261 256 257 284 291 294 295 282 259 105 25 39
245 248 249 249 254 255 252 245 249 247 247 257 266 267 267 267 273 274 270 266 260 257 257 255 253 251 250 247 248 246 246 251 259 261 259 284 291 294 296 302 300 305 310
244 244 247 249 250 253 254 248 250 250 247 246 254 255 267 269 276 274 272 268 264 261 257 256 253 251 247 246 246 245 245 244 249 260 263 261 279 288 293 296 297 305 311
246 246 245 245 246 249 251 251 249 249 245 244 243 251 258 266 265 269 269 273 269 263 260 256 251 246 246 244 244 243 243 243 243 247 255 259 259 274 277 279 288 294 308
244 244 244 245 243 245 248 249 249 252 247 247 248 253 251 257 263 262 264 270 272 270 264 259 255 250 244 241 242 243 242 245 245 245 251 255 260 256 272 276 274 280 280
247 247 245 245 244 243 243 246 248 251 254 253 251 250 244 253 250 257 259 261 261 265 270 267 258 254 249 244 239 241 242 243 244 245 248 253 259 262 260 268 269 270 277
248 249 249 247 246 247 247 247 248 251 255 258 253 254 247 243 250 255 260 262 260 265 271 272 266 257 253 249 243 239 240 243 244 247 247 251 254 260 257 260 270 269 270
245 246 247 247 247 247 247 249 249 249 252 253 255 255 253 250 250 251 254 255 258 258 258 265 268 267 257 252 245 241 239 241 243 244 246 247 251 252 257 255 264 274 273
241 243 244 245 244 245 248 249 248 247 250 253 253 253 253 252 251 253 254 256 256 256 259 260 263 263 263 255 247 242 240 238 239 241 244 246 246 250 254 258 257 265 272
239 241 244 245 245 245 244 246 248 248 248 249 250 250 251 250 249 253 258 262 262 263 261 262 262 263 263 259 250 241 238 237 237 238 239 240 241 245 251 256 260 264 267
237 241 242 243 242 240 242 246 248 249 250 250 251 252 252 252 255 256 257 260 262 261 261 258 257 256 259 257 251 242 239 239 236 236 234 235 237 242 246 249 250 254 262
236 239 240 239 240 243 243 245 251 257 259 259 255 252 253 254 252 254 253 254 261 261 261 260 256 247 244 249 251 239 235 235 235 234 233 230 234 237 241 244 249 256 262
236 238 240 241 240 241 245 249 253 256 260 260 262 257 249 246 250 249 254 248 247 246 251 253 256 253 248 237 244 244 233 228 227 232 234 231 230 237 243 249 254 259 261
238 241 243 243 239 239 243 250 256 258 261 263 258 247 247 247 253 252 250 250 253 256 252 249 247 261 250 248 235 238 240 235 231 232 232 234 236 239 245 251 257 263 264
241 242 241 237 241 246 250 256 257 262 257 239 236 242 241 241 243 243 238 248 246 243 239 245 242 241 247 250 242 234 239 242 241 243 240 242 244 244 249 254 259 263 268
238 236 237 242 250 254 255 254 261 255 254 249 229 251 237 239 232 235 247 242 251 239 240 244 242 244 248 247 253 241 236 240 245 248 247 245 248 250 255 259 261 266 271
241 235 239 244 251 255 253 251 244 250 251 230 245 235 233 230 230 236 246 240 240 245 247 253 253 252 255 239 250 247 241 242 245 246 248 248 255 256 258 261 266 269 273
241 234 235 238 248 256 258 252 244 242 242 239 238 235 230 240 233 235 235 236 240 239 246 252 244 231 229 229 230 250 242 244 247 250 256 255 256 259 262 266 270 273 276
244 237 238 249 255 258 254 238 238 254 234 232 243 244 232 225 227 222 228 229 233 232 238 229 218 232 231 222 238 239 240 247 251 251 253 258 259 262 265 270 273 274 277
241 238 233 237 249 246 254 236 238 246 234 238 231 232 232 223 215 224 230 231 235 228 241 238 237 241 239 232 237 238 240 248 252 254 258 262 264 267 269 273 276 270 274